Location: Black Creek
(40.9000°S, 175.5500°E)
Time: 22:22:29
(UTC+00:00)

Cosmos 1943 Rocket - Visible Passes

Search period start: 05 November 2024 00:00
Search period end: 15 November 2024 00:00
Orbit: 811 x 843 km, 71.0° (Epoch: 05 November)

Date Brightness Start Highest point End Pass type
(mag) Time Alt. Az. Time Alt. Az. Time Alt. Az.
05 Nov 2.7 08:57:32 10° SSW 09:02:55 45° ESE 09:04:40 34° ENE visible
05 Nov 3.7 10:41:52 10° SW 10:46:11 25° W 10:46:11 25° W visible
06 Nov 2.9 08:38:07 10° S 08:43:23 39° ESE 08:45:50 26° ENE visible
06 Nov 3.5 10:22:11 10° SW 10:26:54 28° WNW 10:27:21 28° WNW visible
07 Nov 3.0 08:18:43 10° S 08:23:50 35° ESE 08:27:02 20° ENE visible
07 Nov 3.3 10:02:33 10° SW 10:07:28 33° WNW 10:08:33 30° NW visible
08 Nov 3.2 07:59:19 10° S 08:04:17 31° ESE 08:08:17 14° ENE visible
08 Nov 3.2 09:42:54 10° SW 09:48:02 38° WNW 09:49:49 30° NW visible
09 Nov 3.4 07:39:57 10° S 07:44:43 27° SE 07:49:24 10° ENE visible
09 Nov 3.0 09:23:19 10° SW 09:28:35 43° WNW 09:31:05 27° NNW visible
10 Nov 2.8 09:03:44 10° SSW 09:09:09 50° WNW 09:12:26 22° N visible
11 Nov 2.6 08:44:11 10° SSW 08:49:40 58° WNW 08:53:48 17° N visible
12 Nov 2.4 08:24:38 10° SSW 08:30:12 67° WNW 08:35:15 12° N visible
13 Nov 2.3 08:05:07 10° SSW 08:10:43 77° WNW 08:16:14 10° NNE visible
14 Nov 2.2 07:45:36 10° SSW 07:51:14 88° WNW 07:56:45 10° NNE visible
14 Nov 4.8 09:32:53 10° W 09:34:00 11° W 09:35:08 10° WNW visible
